Location: Wanzleben
(52.0609°N, 11.4408°E)
Time: 10:04:18
(UTC+00:00)

Exosat Rocket - Pass Details

Date: 18 September 2020
Orbit: 760 x 2514 km, 72.3° (Epoch: 30 October)

Event Time Altitude Azimuth Distance (km) Brightness Sun altitude
Rises 18:59:59 0° 179° (S) 3,633 6.8 -15.6°
Reaches altitude 10° 19:02:51 10° 171° (S) 2,529 5.9 -16.0°
Maximum altitude 19:07:46 34° 107° (ESE) 1,265 4.1 -16.6°
Drops below altitude 10° 19:12:16 10° 43° (NE) 2,305 5.8 -17.3°
Sets 19:14:45 0° 34° (NE) 3,265 6.7 -17.6°
